SB KEPS @ AMSAT $ORB11027.N 2Line Orbital Elements 11027.AMSAT
HR AMSAT ORBITAL ELEMENTS FOR AMATEUR SATELLITES IN NASA FORMAT FROM WA5QGD FORT WORTH,TX January 27, 2011 Send Subscribe/unsubscribe to KEPS at http://www.amsat.org/mailman/listinfo/keps BID: ORB11027.N
DECODE 2-LINE ELSETS WITH THE FOLLOWING KEY: 1 AAAAAU 00 0 0 BBBBB.BBBBBBBB .CCCCCCCC 00000-0 00000-0 0 DDDZ 2 AAAAA EEE.EEEE FFF.FFFF GGGGGGG HHH.HHHH III.IIII JJ.JJJJJJJJKKKKKZ KEY: A-CATALOGNUM B-EPOCHTIME C-DECAY D-ELSETNUM E-INCLINATION F-RAAN G-ECCENTRICITY H-ARGPERIGEE I-MNANOM J-MNMOTION K-ORBITNUM Z-CHECKSUM
TO ALL RADIO AMATEURS BT
AO-07 1 07530U 74089B 11027.53783281 -.00000027 00000-0 10000-3 0 9894 2 07530 101.3953 039.6250 0011763 194.6844 165.3891 12.53581082656564 FO-29 1 24278U 96046B 11026.95552069 .00000033 00000-0 72501-4 0 05046 2 24278 098.5231 190.2662 0349760 263.4161 092.7057 13.52956830713363 SO-33 1 25509U 98061B 11027.12669533 .00000051 00000-0 -50953-6 0 8917 2 25509 031.4325 322.1014 0353335 088.0924 276.0116 14.28361290640095 RS-22 1 27939U 03042A 11027.58963467 .00000099 00000-0 27783-4 0 9380 2 27939 097.8629 248.1599 0014654 070.8343 289.4447 14.63503873391771 VO-52 1 28650U 05017B 11026.30604544 .00000468 00000-0 65226-4 0 07036 2 28650 097.6618 075.6598 0025812 266.4615 093.3675 14.81897989309737 SO-67 1 35870U 09049F 11027.58223231 .00000609 00000-0 30193-4 0 5083 2 35870 097.3020 075.4107 0004235 049.6528 106.0758 15.21306913 75569 HO-68 1 36122U 09072B 11027.62398943 -.00000045 00000-0 00000 0 0 593 2 36122 100.4379 090.4596 0007502 183.7855 176.3201 13.16283859 53749 UO-11 1 14781U 84021B 11027.70928701 -.00000177 00000-0 -16359-4 0 4553 2 14781 098.0249 084.7312 0008175 229.0764 130.9770 14.79881628445016 AO-16 1 20439U 90005D 11026.94017810 .00000010 00000-0 19272-4 0 01046 2 20439 098.3656 341.4190 0010281 219.3975 140.6466 14.31892749097402 LO-19 1 20442U 90005G 11026.90220044 -.00000016 00000-0 95219-5 0 00122 2 20442 098.3279 346.2863 0011352 213.0660 146.9808 14.32120699097575 AO-27 1 22825U 93061C 11026.88528720 .00000085 00000-0 50267-4 0 07353 2 22825 098.5147 334.3736 0008247 336.9735 023.1107 14.29324620904001 IO-26 1 22826U 93061D 11026.91047572 .00000018 00000-0 24025-4 0 04737 2 22826 098.5094 334.9206 0008588 331.3272 028.7448 14.29583570904127 GO-32 1 25397U 98043D 11026.74121000 -.00000006 00000-0 15451-4 0 03930 2 25397 098.3198 026.9268 0001120 016.9470 343.1734 14.23194789651847 NO-44 1 26931U 01043C 11027.35516250 -.00000260 00000-0 -68896-4 0 6658 2 26931 067.0539 346.4019 0006897 272.1309 087.8993 14.29629982486794 SO-50 1 27607U 02058C 11027.53964372 .00000039 00000-0 28052-4 0 3769 2 27607 064.5591 035.0126 0056681 354.6725 005.3769 14.71634569435399 CO-55 1 27844U 03031E 11026.48552002 .00000050 00000-0 43232-4 0 00318 2 27844 098.7076 037.2391 0009091 247.3394 112.6828 14.20763793392790 CO-57 1 27848U 03031J 11026.47768676 .00000065 00000-0 50788-4 0 9787 2 27848 098.7140 036.3766 0009039 252.6267 107.3952 14.20550069392746 AO-51 1 28375U 04025K 11026.43437643 .00000026 00000-0 20259-4 0 08810 2 28375 098.0813 012.4581 0084056 139.2585 221.4931 14.40720983345656 CP3 1 31129U 07012N 11026.92228453 -.00000114 00000-0 -15265-4 0 07833 2 31129 097.9149 059.2123 0101221 259.4760 099.4991 14.52366612200334 CO-65 1 32785U 08021C 11027.16040438 .00000541 00000-0 75116-4 0 8996 2 32785 097.8684 093.6484 0013813 275.6785 084.2848 14.81815812148656 KKS-1 1 33493U 09002B 11027.60931005 .00000450 00000-0 64521-4 0 2565 2 33493 098.1060 154.3874 0020756 133.4692 226.8257 14.81296709108703 SOHLA-1 1 33496U 09002E 11027.79042357 -.00000039 00000-0 17661-5 0 3188 2 33496 098.0684 139.1571 0006060 202.0614 158.0326 14.69550788107866 TISAT-1 1 36799U 10035E 11027.55190323 .00000278 00000-0 43695-4 0 5301 2 36799 098.1204 094.3269 0015719 015.6276 344.5419 14.80298559 29500 STUDSAT 1 36801U 10035G 11026.87115937 .00000607 00000-0 87436-4 0 1243 2 36801 098.1257 093.4990 0014174 006.1072 354.0297 14.79963106 29398 RAX 1 37223U 0 11025.33628999 .00000111 00000-0 23543-4 0 00631 2 37223 071.9737 353.9981 0021733 197.2501 162.7907 14.77222180009793 OOREOS 1 37224U 10062C 11003.47313986 .00000190 00000-0 34872-4 0 00475 2 37224 071.9731 042.3045 0021305 233.7010 126.2182 14.76873402006553 NANOSALD 1 37225U 0 11025.43306579 .00021226 00000-0 29810-2 0 00104 2 37225 071.9760 353.9401 0020355 190.5305 169.5636 14.77233581000900 FAST1-2 1 37227U 0 11026.45731043 .00000125 00000-0 25994-4 0 00619 2 37227 071.9741 351.7150 0017752 190.1612 169.9179 14.76386874009944 NOAA-10 1 16969U 86073A 11027.17923591 .00000027 00000-0 28832-4 0 3757 2 16969 098.6350 058.7801 0011505 278.4579 081.5297 14.27441989267531 NOAA-11 1 19531U 88089A 11027.19379137 -.00000149 00000-0 -54566-4 0 3791 2 19531 098.7568 117.3087 0010474 229.2546 130.7682 14.14901711152810 NOAA-12 1 21263U 91032A 11026.74253643 .00000019 00000-0 26965-4 0 08736 2 21263 098.7578 044.7874 0011623 236.3337 123.6732 14.25680154024257 MET-3/5 1 21655U 91056A 11026.90826407 .00000051 00000-0 10000-3 0 00245 2 21655 082.5598 150.5864 0014168 146.4097 213.7960 13.17028598935120 MET-2/21 1 22782U 93055A 11027.67996387 -.00000090 00000-0 -95060-4 0 29 2 22782 082.5456 074.3623 0023638 130.5221 229.8014 13.83651811879124 OKEAN-4 1 23317U 94066A 11026.87714245 .00000197 00000-0 21252-4 0 04582 2 23317 082.5421 145.0696 0020938 221.7560 138.2068 14.82929146879600 NOAA-14 1 23455U 94089A 11026.77836314 -.00000034 00000-0 54664-5 0 03619 2 23455 098.8612 110.7806 0008954 326.0173 034.0437 14.13805230829092 NOAA-15 1 25338U 98030A 11027.44384592 -.00000072 00000-0 -12298-4 0 6883 2 25338 098.6428 015.6131 0011271 138.8220 221.3836 14.24879372660681 RESURS 1 25394U 98043A 11026.89753442 -.00000014 00000-0 11624-4 0 07104 2 25394 098.2987 037.7070 0000914 329.2176 030.8949 14.24222102652192 FENGYUN1 1 25730U 99025A 11026.88498944 -.00000193 00000-0 -87246-4 0 02434 2 25730 098.8044 351.2745 0022869 349.9385 010.1360 14.08487591603172 OKEAN-0 1 25860U 99039A 11026.93935329 .00000056 00000-0 16047-4 0 02158 2 25860 097.8646 357.4340 0001905 077.0081 283.1341 14.73704098619851 NOAA-16 1 26536U 00055A 11027.40828136 .00000297 00000-0 18540-3 0 1682 2 26536 099.1553 054.9940 0011202 070.3013 289.9391 14.12596077533483 NOAA-17 1 27453U 02032A 11026.75851516 -.00000108 00000-0 -28917-4 0 01631 2 27453 098.4000 072.8322 0011474 199.1501 160.9255 14.24229975446525 NOAA-18 1 28654U 05018A 11026.82009954 .00000032 00000-0 42527-4 0 06497 2 28654 098.9793 337.7527 0014708 140.2706 219.9504 14.11430808292986 NOAA-19 1 33591U 09005A 11026.78612991 -.00000115 00000-0 -39554-4 0 08435 2 33591 098.8137 329.4204 0014664 019.4269 340.7440 14.11123326101441 HUBBLE 1 20580U 90037B 11026.64937645 .00000402 00000-0 17859-4 0 7064 2 20580 028.4692 220.8594 0003338 058.8207 301.2683 15.01146526938368 ISS 1 25544U 98067A 11027.97546650 .00012032 00000-0 93794-4 0 7209 2 25544 051.6442 159.8098 0003759 236.9418 226.5219 15.72182954698836 CO-58 1 28895U 05043F 11027.43866102 .00000233 00000-0 57791-4 0 7860 2 28895 097.9864 269.1023 0017069 304.5368 055.4254 14.59999588279709 FALCON 1 30776U 07006E 11027.67641747 .00000627 00000-0 47394-4 0 97 2 30776 035.4323 120.9610 0001794 330.5494 029.5121 15.04081060213879 MAST 1 31126U 07012K 11027.62141232 .00000098 00000-0 32740-4 0 702 2 31126 097.9108 062.6908 0093593 248.1113 111.0112 14.53667533200663 CAPE1 1 31130U 07012P 11026.92393796 -.00000080 00000-0 -75202-5 0 00910 2 31130 097.9126 059.0209 0101564 259.9120 099.0593 14.52282285200134 COMPASS 1 32787U 08021E 11026.92240295 -.00000035 00000-0 22537-5 0 8937 2 32787 097.8661 093.2824 0014651 278.3236 081.6311 14.82118071148637 AAUSAT2 1 32788U 08021F 11026.70015350 .00000450 00000-0 62871-4 0 08839 2 32788 097.8650 093.2445 0014199 278.5027 081.4525 14.82282286148615 DO-64 1 32789U 08021G 11026.94761771 .00000757 00000-0 10060-3 0 09014 2 32789 097.8750 094.2534 0014375 275.7937 084.1639 14.82561842148650 CO-66 1 32791U 08021J 11027.18232427 -.00000140 00000-0 -11002-4 0 8830 2 32791 097.8669 093.5166 0015013 275.8098 084.1373 14.81863120148629 RS-30 1 32953U 08025A 11027.61369316 .00000010 00000-0 00000 0 0 4213 2 32953 082.4990 250.1197 0018972 335.8561 024.1629 12.43010572121620 TACSAT-3 1 35001U 09028A 11026.97344326 .00004569 00000-0 10019-3 0 04966 2 35001 040.4553 307.2579 0023758 242.4989 117.3412 15.44556764095211 PHARMSAT 1 35002U 09028B 11026.93571651 .00004304 00000-0 93802-4 0 04651 2 35002 040.4706 304.9763 0025691 245.8997 113.9145 15.44787035095239 HAWKSAT1 1 35003U 09028C 11026.76767609 .00013202 00000-0 21977-3 0 04990 2 35003 040.4611 291.3146 0025226 269.2924 090.5020 15.51355517095374 CP6 1 35004U 09028D 11026.75425618 .00016068 00000-0 24621-3 0 05028 2 35004 040.4600 287.5987 0024867 275.1507 084.6513 15.53548131095409 AEROCUB3 1 35005U 09028E 11006.09222617 .14049365 73043-5 82692-3 0 6103 2 35005 040.4461 021.7975 0025578 084.1677 280.7191 16.39196088 92544 METEOR-M 1 35865U 09049A 11027.69001505 .00000176 00000-0 10000-3 0 489 2 35865 098.7269 084.5111 0003225 076.3436 283.8059 14.21834304 70621 RS-38 1 35869U 09049E 11027.70684042 .00000177 00000-0 10000-3 0 614 2 35869 098.7257 084.5699 0005443 077.1911 282.9834 14.21998872 70637 /EX
participants (1)
-
Ray Hoad